Regional Weather Roundup
Issued by NWS Mobile, AL

Home | Current Version | Previous Version | Text Only | Print | Product List | Glossary On
Versions: 1 2 3 4 5 6 7 8 9 10 11 12 13 14 15 16 17 18 19 20
000
ASUS44 KMOB 270413
RWRMOB
REGIONAL WEATHER ROUNDUP
NATIONAL WEATHER SERVICE MOBILE AL
1100 PM CDT THU APR 26 2018

NOTE: "FAIR" INDICATES FEW OR NO CLOUDS BELOW 12,000 FEET WITH NO
      SIGNIFICANT WEATHER AND/OR OBSTRUCTIONS TO VISIBILITY.

  * THESE STATIONS ARE PART OF THE UNIVERSITY OF SOUTH ALABAMA
    MESONET AND ARE NOT UNDER NWS OR FAA QUALITY CONTROL.

ALZ061>064-270500-
COASTAL ALABAMA

CITY           SKY/WX    TMP DP  RH WIND       PRES   REMARKS
MOBILE REG APT FAIR      58  50  75 NW7       29.93S
BROOKLEY FIELD FAIR      60  52  74 NW10      29.93S
USA CAMPUS*      N/A     59  50  72 W6        29.93R
DOG RIVER*       N/A     61  52  72 NW5         N/A


CITY           SKY/WX    TMP DP  RH WIND       PRES   REMARKS
GULF SHORES    FAIR      60  50  67 CALM      29.91S

$$

ALZ051>060-270500-
INTERIOR SOUTHWEST AND SOUTH CENTRAL ALABAMA

CITY           SKY/WX    TMP DP  RH WIND       PRES   REMARKS
GREENVILLE     FAIR      54  50  86 W5        29.87S
EVERGREEN      FAIR      55  50  83 CALM      29.90S
ATMORE*          N/A     57  54  88 W7        30.58S
ANDALUSIA/OPP  FAIR      56  51  84 CALM      29.88S
ANDALUSIA*       N/A     55  52  88 NW3       29.88S
FLORALA APT    FAIR      54  51  90 CALM      29.91R
FLORALA*         N/A     55  52  88 CALM      30.55R

$$

FLZ001>006-270500-
WESTERN FLORIDA PANHANDLE

CITY           SKY/WX    TMP DP  RH WIND       PRES   REMARKS
PENSACOLA      FAIR      62  50  64 N9        29.89S
NAS PENSACOLA  FAIR      61  51  70 NW6       29.89S
MILTON         FAIR      59  51  75 NW5       29.89S
WHTNG S FIELD  FAIR      57  51  80 NW6       29.89S


CITY           SKY/WX    TMP DP  RH WIND       PRES   REMARKS
JAY*             N/A     57  50  77 NW5         N/A
DUKE FIELD     CLEAR     60  51  73 NW6       29.88R
CRESTVIEW      FAIR      59  51  75 N5        29.90R
VALPARAISO     PTCLDY    61  51  70 N6        29.87S
DESTIN         FAIR      67  52  58 N12       29.88R

$$

MSZ076-079-270500-
INTERIOR SOUTHEAST MISSISSIPPI

CITY           SKY/WX    TMP DP  RH WIND       PRES   REMARKS
LEAKESVILLE*     N/A     54  54 100 CALM      29.95
AGRICOLA*        N/A     57  52  82 CALM      29.93

$$

MARINE OBSERVATIONS

STATION/POSITION TIME  TEMP    WIND        PRES    WAVE
                       AIR SEA DIR/SP/G            HT/PER
                 (UTC) (F)     (DEG/KT/KT) (MB)    (FT/S)
PETIT BOIS ISLND 0342   64     340/ 15/ 19 1014.2R
GRAND BAY        0245   63     350/  6     1014.0R
KATRINA CUT      0330   65     350/ 16     1013.2R
CEDAR POINT      0330   63     340/ 10       N/A
E DAUPHIN ISLAND 0400   64     320/ 15/ 16 1013.0R
MIDDLE BAY LIGHT 0330   64     330/ 17     1012.5S
USCG MOBILE BAY  0342   61 69  320/  7/  9 1013.1R
STATE DOCKS      0342   61 66              1013.0S
MEAHER PARK      0330   61     340/  4     1012.9R
WEEKS BAY        0245   63                 1012.0S
FORT MORGAN      0342   65     350/ 17/ 18   N/A
12 S ORANGE BCH  0350   67     340/ 17/ 21 1012.3R   2/ 3
PENSACOLA BAY    0342   65 71  330/  5/  8 1012.5R
64 S DAUPHIN ISL 0350      73  330/ 12/ 14 1013.0R   2/ 4
67 S FORT MORGAN 0330   69                 1012.5S

$$

SELECTED LOCATIONS ACROSS THE REGION

CITY           SKY/WX    TMP DP  RH WIND       PRES   REMARKS
NEW ORLEANS    FAIR      64  54  69 N6        29.95S
GULFPORT       FAIR      59  51  75 NW7       29.93S
PASCAGOULA AP  FAIR      57  50  77 CALM      29.93R
PASCAGOULA*      N/A     57  52  82 CALM      29.94
HATTIESBURG    FAIR      57  53  86 W5        29.95S
LAUREL         FAIR      54  52  93 CALM      29.95S
MERIDIAN       CLOUDY    59  54  83 W6        29.92S
JACKSON        MOCLDY    59  54  83 W3        29.94R
MONTGOMERY     FAIR      57  52  83 W3        29.87F
TROY           FAIR      52  52 100 CALM      29.88S
ASHFORD*         N/A     55  52  88 NW3       29.88S
DOTHAN         FAIR      60  53  77 NW9       29.90R
PANAMA CITY    MOCLDY    63  60  90 NW5       29.86S

$$





USA.gov is the U.S. government's official web portal to all federal, state and local government web resources and services.